QPF
0.01 0.01 0.03 0.02 0.02 0.02 0.02 0.02 0.01 0.01 0.01 0.01 0.01 0.02 0.02 0.02 0.03 0.02 0.01 0.01 0.01 0.01 0.01 0.01 0.01 0.01 0.01 0.01 0.01 0.01 0.01 0.01 0.02 0.01 0.01 0.01 0.01 0.01 0.00 0.00 0.00 0.00 0.00
0.01 0.01 0.03 0.04 0.03 0.02 0.02 0.02 0.02 0.02 0.02 0.01 0.01 0.02 0.01 0.01 0.02 0.02 0.02 0.01 0.01 0.02 0.02 0.01 0.01 0.01 0.01 0.01 0.01 0.01 0.01 0.01 0.01 0.01 0.01 0.01 0.01 0.01 0.01 0.01 0.00 0.00 0.01
0.01 0.01 0.03 0.03 0.02 0.02 0.02 0.02 0.02 0.02 0.02 0.01 0.02 0.01 0.01 0.01 0.01 0.02 0.02 0.01 0.01 0.02 0.02 0.01 0.00 0.01 0.01 0.01 0.01 0.01 0.01 0.01 0.01 0.01 0.01 0.01 0.01 0.01 0.01 0.01 0.01 0.01 0.01
0.01 0.01 0.01 0.02 0.02 0.02 0.03 0.03 0.02 0.02 0.02 0.02 0.02 0.01 0.01 0.01 0.01 0.01 0.01 0.01 0.01 0.02 0.02 0.01 0.01 0.01 0.01 0.01 0.01 0.00 0.00 0.01 0.00 0.00 0.01 0.01 0.01 0.02 0.02 0.02 0.02 0.02 0.01
0.00 0.01 0.01 0.02 0.03 0.04 0.04 0.04 0.03 0.02 0.02 0.03 0.02 0.01 0.01 0.01 0.02 0.01 0.01 0.01 0.01 0.02 0.02 0.01 0.01 0.01 0.01 0.01 0.00 0.00 0.00 0.00 0.00 0.00 0.00 0.01 0.01 0.02 0.01 0.02 0.02 0.01 0.01
0.00 0.00 0.01 0.03 0.04 0.05 0.03 0.03 0.02 0.03 0.03 0.03 0.03 0.03 0.02 0.02 0.02 0.03 0.02 0.02 0.02 0.02 0.02 0.02 0.01 0.02 0.02 0.01 0.01 0.00 0.00 0.00 0.00 0.00 0.00 0.00 0.00 0.01 0.02 0.02 0.02 0.02 0.02
0.01 0.01 0.01 0.03 0.04 0.04 0.04 0.03 0.03 0.03 0.03 0.03 0.03 0.03 0.03 0.03 0.03 0.04 0.04 0.03 0.03 0.02 0.02 0.02 0.02 0.01 0.02 0.01 0.01 0.01 0.00 0.00 0.00 0.00 0.00 0.00 0.01 0.01 0.01 0.01 0.01 0.01 0.01
0.01 0.01 0.02 0.04 0.04 0.04 0.03 0.04 0.04 0.03 0.03 0.03 0.03 0.03 0.02 0.03 0.04 0.05 0.03 0.02 0.02 0.02 0.02 0.02 0.02 0.02 0.02 0.01 0.01 0.01 0.00 0.00 0.00 0.00 0.00 0.00 0.01 0.01 0.01 0.01 0.01 0.01 0.01
0.01 0.02 0.03 0.05 0.06 0.04 0.04 0.04 0.03 0.03 0.03 0.03 0.03 0.02 0.02 0.02 0.03 0.03 0.02 0.02 0.02 0.02 0.02 0.02 0.01 0.01 0.02 0.02 0.01 0.01 0.00 0.00 0.00 0.00 0.00 0.00 0.01 0.01 0.01 0.01 0.01 0.01 0.01
0.02 0.03 0.04 0.05 0.05 0.05 0.04 0.03 0.03 0.04 0.03 0.03 0.03 0.02 0.02 0.02 0.02 0.02 0.02 0.02 0.02 0.02 0.03 0.03 0.02 0.02 0.01 0.01 0.01 0.01 0.00 0.00 0.00 0.00 0.00 0.00 0.01 0.01 0.01 0.01 0.01 0.01 0.01
0.03 0.03 0.04 0.06 0.06 0.06 0.05 0.03 0.03 0.03 0.04 0.03 0.03 0.02 0.02 0.01 0.01 0.01 0.01 0.01 0.02 0.02 0.02 0.02 0.01 0.03 0.02 0.02 0.02 0.01 0.01 0.01 0.00 0.00 0.00 0.00 0.01 0.01 0.01 0.01 0.01 0.01 0.01
0.03 0.03 0.04 0.07 0.07 0.06 0.05 0.04 0.03 0.03 0.03 0.03 0.03 0.03 0.03 0.02 0.01 0.01 0.01 0.01 0.01 0.02 0.02 0.02 0.01 0.02 0.01 0.01 0.01 0.02 0.02 0.02 0.01 0.00 0.00 0.00 0.01 0.01 0.01 0.01 0.01 0.01 0.01
0.05 0.04 0.04 0.07 0.08 0.07 0.06 0.06 0.05 0.04 0.03 0.03 0.03 0.03 0.03 0.03 0.02 0.02 0.01 0.01 0.01 0.02 0.02 0.02 0.02 0.01 0.00 0.00 0.00 0.00 0.01 0.02 0.02 0.01 0.00 0.00 0.01 0.02 0.02 0.01 0.01 0.01 0.02
0.06 0.06 0.05 0.06 0.10 0.08 0.06 0.05 0.05 0.04 0.04 0.03 0.03 0.03 0.03 0.03 0.03 0.03 0.02 0.01 0.01 0.02 0.02 0.02 0.01 0.01 0.01 0.00 0.00 0.00 0.00 0.00 0.01 0.01 0.01 0.01 0.01 0.02 0.03 0.02 0.01 0.01 0.02
0.07 0.06 0.06 0.06 0.09 0.09 0.07 0.06 0.06 0.04 0.03 0.04 0.04 0.04 0.03 0.03 0.03 0.04 0.04 0.03 0.02 0.02 0.01 0.02 0.01 0.01 0.01 0.01 0.00 0.00 0.00 0.00 0.00 0.00 0.01 0.00 0.01 0.02 0.02 0.02 0.02 0.02 0.02
0.06 0.06 0.06 0.06 0.09 0.11 0.09 0.08 0.07 0.06 0.04 0.03 0.04 0.06 0.05 0.04 0.03 0.03 0.03 0.03 0.03 0.02 0.02 0.01 0.01 0.01 0.01 0.01 0.00 0.00 0.00 0.00 0.00 0.00 0.00 0.01 0.01 0.01 0.01 0.02 0.02 0.02 0.02
0.06 0.06 0.07 0.07 0.08 0.12 0.12 0.10 0.08 0.07 0.06 0.04 0.04 0.05 0.06 0.06 0.05 0.04 0.04 0.04 0.04 0.03 0.03 0.02 0.01 0.01 0.01 0.01 0.00 0.00 0.00 0.00 0.00 0.00 0.00 0.00 0.00 0.01 0.01 0.02 0.02 0.02 0.02
0.07 0.07 0.07 0.07 0.07 0.09 0.11 0.11 0.10 0.09 0.08 0.06 0.05 0.05 0.06 0.07 0.07 0.06 0.04 0.04 0.04 0.04 0.03 0.03 0.02 0.01 0.01 0.00 0.00 0.00 0.00 0.00 0.00 0.00 0.00 0.00 0.00 0.00 0.01 0.01 0.02 0.02 0.03
0.07 0.08 0.07 0.06 0.05 0.05 0.07 0.09 0.10 0.11 0.11 0.09 0.06 0.04 0.05 0.06 0.05 0.06 0.05 0.04 0.03 0.04 0.04 0.03 0.02 0.02 0.01 0.01 0.00 0.00 0.00 0.00 0.00 0.00 0.00 0.00 0.00 0.00 0.00 0.00 0.01 0.02 0.02
0.08 0.09 0.09 0.07 0.05 0.05 0.05 0.07 0.08 0.11 0.16 0.16 0.11 0.05 0.03 0.03 0.05 0.05 0.06 0.06 0.04 0.04 0.04 0.03 0.02 0.02 0.02 0.01 0.01 0.01 0.00 0.00 0.00 0.00 0.00 0.00 0.01 0.01 0.01 0.01 0.00 0.01 0.01
0.10 0.10 0.10 0.07 0.05 0.05 0.05 0.05 0.06 0.08 0.12 0.18 0.21 0.15 0.08 0.05 0.04 0.05 0.05 0.06 0.07 0.06 0.05 0.04 0.02 0.02 0.01 0.01 0.01 0.01 0.00 0.00 0.00 0.00 0.00 0.01 0.01 0.01 0.01 0.01 0.01 0.01 0.00
0.12 0.12 0.11 0.07 0.05 0.05 0.05 0.05 0.05 0.05 0.07 0.11 0.16 0.19 0.16 0.11 0.07 0.05 0.05 0.05 0.06 0.07 0.07 0.06 0.04 0.02 0.02 0.01 0.01 0.01 0.01 0.01 0.00 0.00 0.00 0.00 0.01 0.01 0.01 0.01 0.02 0.02 0.01
0.14 0.13 0.13 0.08 0.06 0.07 0.07 0.07 0.06 0.06 0.06 0.07 0.10 0.15 0.16 0.12 0.09 0.10 0.08 0.06 0.05 0.06 0.07 0.08 0.06 0.04 0.02 0.01 0.01 0.01 0.02 0.02 0.01 0.00 0.00 0.00 0.00 0.01 0.01 0.02 0.01 0.02 0.03
0.14 0.14 0.14 0.11 0.07 0.07 0.08 0.09 0.07 0.06 0.06 0.06 0.05 0.08 0.13 0.16 0.11 0.09 0.13 0.14 0.10 0.08 0.08 0.09 0.09 0.08 0.05 0.03 0.02 0.01 0.01 0.01 0.01 0.01 0.00 0.01 0.01 0.01 0.01 0.02 0.02 0.02 0.02
0.14 0.14 0.15 0.14 0.11 0.09 0.07 0.08 0.08 0.07 0.05 0.05 0.05 0.07 0.08 0.13 0.15 0.11 0.09 0.13 0.16 0.12 0.12 0.12 0.10 0.09 0.08 0.06 0.05 0.02 0.01 0.01 0.01 0.01 0.01 0.01 0.01 0.01 0.02 0.02 0.02 0.03 0.03
0.13 0.16 0.16 0.16 0.15 0.13 0.10 0.08 0.07 0.05 0.05 0.04 0.04 0.05 0.09 0.12 0.14 0.19 0.16 0.12 0.13 0.13 0.13 0.13 0.12 0.09 0.09 0.08 0.08 0.06 0.04 0.02 0.01 0.02 0.02 0.01 0.01 0.01 0.02 0.03 0.02 0.03 0.03
MSLP
1006.92 1006.04 1005.24 1004.57 1004.07 1003.74 1003.60 1003.63 1003.81 1004.10 1004.47 1004.89 1005.36 1005.86 1006.41 1007.01 1007.62 1008.26 1008.89 1009.47 1009.99 1010.45 1010.84 1011.19 1011.51 1011.83 1012.15 1012.48 1012.81 1013.11 1013.39 1013.62 1013.81 1013.98 1014.14 1014.32 1014.51 1014.71 1014.93 1015.14 1015.33 1015.49 1015.63
1007.66 1006.74 1005.84 1005.01 1004.30 1003.77 1003.44 1003.32 1003.41 1003.66 1004.06 1004.55 1005.10 1005.69 1006.30 1006.92 1007.55 1008.18 1008.79 1009.37 1009.91 1010.40 1010.84 1011.23 1011.59 1011.93 1012.26 1012.56 1012.85 1013.13 1013.38 1013.61 1013.83 1014.04 1014.26 1014.48 1014.71 1014.95 1015.18 1015.40 1015.60 1015.78 1015.95
1008.10 1007.16 1006.17 1005.22 1004.36 1003.67 1003.21 1002.99 1003.03 1003.28 1003.72 1004.28 1004.91 1005.55 1006.19 1006.81 1007.42 1008.01 1008.58 1009.14 1009.69 1010.21 1010.70 1011.16 1011.57 1011.95 1012.29 1012.59 1012.88 1013.14 1013.39 1013.64 1013.89 1014.15 1014.41 1014.68 1014.95 1015.22 1015.46 1015.69 1015.90 1016.10 1016.29
1008.22 1007.26 1006.23 1005.20 1004.24 1003.46 1002.91 1002.64 1002.66 1002.94 1003.42 1004.03 1004.71 1005.39 1006.04 1006.64 1007.20 1007.73 1008.26 1008.80 1009.35 1009.91 1010.45 1010.97 1011.46 1011.89 1012.26 1012.59 1012.89 1013.16 1013.43 1013.71 1014.00 1014.30 1014.62 1014.93 1015.23 1015.51 1015.76 1015.99 1016.21 1016.41 1016.62
1008.07 1007.11 1006.07 1005.00 1004.01 1003.17 1002.58 1002.28 1002.29 1002.59 1003.10 1003.76 1004.47 1005.17 1005.82 1006.39 1006.91 1007.40 1007.89 1008.41 1008.96 1009.54 1010.14 1010.73 1011.28 1011.77 1012.20 1012.57 1012.90 1013.21 1013.51 1013.82 1014.16 1014.51 1014.86 1015.20 1015.52 1015.80 1016.05 1016.28 1016.49 1016.70 1016.91
1007.73 1006.80 1005.78 1004.72 1003.72 1002.86 1002.24 1001.92 1001.92 1002.21 1002.74 1003.41 1004.15 1004.86 1005.52 1006.09 1006.59 1007.05 1007.52 1008.03 1008.59 1009.20 1009.84 1010.49 1011.10 1011.65 1012.13 1012.55 1012.92 1013.27 1013.61 1013.97 1014.34 1014.72 1015.10 1015.46 1015.78 1016.06 1016.30 1016.52 1016.72 1016.93 1017.16
1007.30 1006.42 1005.46 1004.43 1003.45 1002.59 1001.94 1001.59 1001.54 1001.80 1002.31 1002.99 1003.74 1004.48 1005.16 1005.75 1006.27 1006.75 1007.23 1007.74 1008.32 1008.95 1009.62 1010.29 1010.95 1011.54 1012.07 1012.54 1012.95 1013.34 1013.72 1014.11 1014.52 1014.92 1015.31 1015.67 1015.99 1016.26 1016.49 1016.70 1016.90 1017.11 1017.36
1006.86 1006.06 1005.17 1004.21 1003.25 1002.39 1001.71 1001.29 1001.17 1001.37 1001.84 1002.50 1003.26 1004.04 1004.77 1005.43 1006.01 1006.53 1007.05 1007.59 1008.18 1008.82 1009.49 1010.18 1010.85 1011.47 1012.03 1012.53 1012.98 1013.41 1013.82 1014.24 1014.66 1015.08 1015.47 1015.82 1016.12 1016.38 1016.60 1016.81 1017.02 1017.25 1017.51
1006.45 1005.75 1004.96 1004.07 1003.15 1002.28 1001.55 1001.05 1000.85 1000.96 1001.36 1001.98 1002.75 1003.58 1004.38 1005.13 1005.80 1006.41 1006.99 1007.57 1008.17 1008.80 1009.46 1010.13 1010.79 1011.41 1011.98 1012.51 1012.99 1013.45 1013.89 1014.33 1014.76 1015.17 1015.55 1015.89 1016.18 1016.43 1016.66 1016.88 1017.11 1017.36 1017.65
1006.07 1005.49 1004.81 1004.01 1003.13 1002.26 1001.49 1000.91 1000.59 1000.59 1000.91 1001.48 1002.25 1003.11 1004.00 1004.86 1005.64 1006.35 1007.00 1007.62 1008.23 1008.84 1009.47 1010.11 1010.74 1011.35 1011.93 1012.47 1012.98 1013.46 1013.93 1014.38 1014.80 1015.20 1015.57 1015.89 1016.17 1016.42 1016.67 1016.91 1017.18 1017.48 1017.80
1005.73 1005.27 1004.70 1004.00 1003.19 1002.33 1001.52 1000.85 1000.43 1000.32 1000.53 1001.03 1001.78 1002.67 1003.63 1004.58 1005.47 1006.29 1007.01 1007.67 1008.28 1008.88 1009.48 1010.08 1010.67 1011.27 1011.85 1012.41 1012.95 1013.46 1013.95 1014.40 1014.82 1015.20 1015.54 1015.85 1016.12 1016.39 1016.65 1016.94 1017.26 1017.61 1017.98
1005.41 1005.06 1004.61 1004.02 1003.28 1002.46 1001.63 1000.91 1000.39 1000.15 1000.25 1000.67 1001.36 1002.25 1003.25 1004.27 1005.25 1006.14 1006.93 1007.63 1008.26 1008.85 1009.42 1009.99 1010.57 1011.16 1011.76 1012.34 1012.91 1013.46 1013.96 1014.42 1014.83 1015.20 1015.51 1015.80 1016.07 1016.34 1016.64 1016.97 1017.34 1017.75 1018.18
1005.11 1004.85 1004.52 1004.04 1003.40 1002.64 1001.82 1001.06 1000.47 1000.12 1000.09 1000.39 1001.00 1001.84 1002.83 1003.88 1004.91 1005.87 1006.72 1007.46 1008.11 1008.71 1009.28 1009.84 1010.43 1011.04 1011.67 1012.30 1012.91 1013.49 1014.02 1014.48 1014.88 1015.22 1015.51 1015.77 1016.03 1016.31 1016.64 1017.01 1017.43 1017.90 1018.37
1004.85 1004.67 1004.43 1004.05 1003.52 1002.84 1002.07 1001.30 1000.65 1000.20 1000.04 1000.21 1000.68 1001.43 1002.36 1003.39 1004.43 1005.43 1006.33 1007.12 1007.82 1008.45 1009.05 1009.66 1010.28 1010.93 1011.61 1012.30 1012.97 1013.59 1014.13 1014.60 1014.98 1015.29 1015.55 1015.78 1016.03 1016.31 1016.65 1017.05 1017.52 1018.02 1018.53
1004.68 1004.52 1004.34 1004.07 1003.64 1003.06 1002.36 1001.61 1000.92 1000.38 1000.09 1000.09 1000.41 1001.01 1001.83 1002.79 1003.82 1004.83 1005.78 1006.63 1007.41 1008.11 1008.78 1009.46 1010.15 1010.88 1011.63 1012.38 1013.09 1013.75 1014.32 1014.79 1015.16 1015.43 1015.66 1015.86 1016.08 1016.34 1016.68 1017.09 1017.57 1018.09 1018.62
1004.60 1004.43 1004.29 1004.09 1003.76 1003.28 1002.66 1001.96 1001.24 1000.63 1000.20 1000.03 1000.16 1000.58 1001.25 1002.11 1003.09 1004.10 1005.10 1006.03 1006.91 1007.72 1008.51 1009.28 1010.07 1010.89 1011.71 1012.52 1013.29 1013.98 1014.57 1015.04 1015.39 1015.64 1015.83 1015.99 1016.18 1016.42 1016.73 1017.13 1017.60 1018.11 1018.63
1004.64 1004.42 1004.27 1004.10 1003.86 1003.47 1002.95 1002.29 1001.59 1000.90 1000.34 1000.00 999.93 1000.15 1000.65 1001.38 1002.29 1003.30 1004.34 1005.38 1006.37 1007.32 1008.23 1009.14 1010.03 1010.94 1011.84 1012.71 1013.52 1014.24 1014.84 1015.31 1015.65 1015.88 1016.03 1016.17 1016.32 1016.53 1016.81 1017.18 1017.61 1018.09 1018.58
1004.77 1004.46 1004.27 1004.12 1003.93 1003.63 1003.19 1002.60 1001.91 1001.18 1000.51 999.99 999.72 999.73 1000.05 1000.64 1001.47 1002.47 1003.56 1004.69 1005.81 1006.91 1007.96 1008.99 1010.00 1010.99 1011.96 1012.87 1013.72 1014.46 1015.08 1015.55 1015.89 1016.11 1016.26 1016.38 1016.51 1016.68 1016.92 1017.24 1017.62 1018.05 1018.49
1004.95 1004.54 1004.28 1004.11 1003.96 1003.73 1003.38 1002.86 1002.20 1001.43 1000.67 1000.01 999.54 999.35 999.48 999.93 1000.67 1001.64 1002.78 1003.99 1005.24 1006.47 1007.66 1008.80 1009.91 1010.97 1011.99 1012.94 1013.81 1014.57 1015.21 1015.71 1016.07 1016.31 1016.47 1016.59 1016.71 1016.86 1017.07 1017.34 1017.66 1018.03 1018.41
1005.16 1004.63 1004.29 1004.09 1003.96 1003.79 1003.51 1003.06 1002.44 1001.67 1000.83 1000.04 999.41 999.03 998.97 999.28 999.91 1000.84 1002.00 1003.28 1004.62 1005.96 1007.26 1008.51 1009.69 1010.80 1011.85 1012.84 1013.73 1014.52 1015.19 1015.73 1016.14 1016.43 1016.63 1016.78 1016.92 1017.07 1017.25 1017.48 1017.75 1018.06 1018.37
1005.34 1004.72 1004.29 1004.05 1003.92 1003.80 1003.59 1003.22 1002.64 1001.88 1001.00 1000.10 999.32 998.77 998.55 998.70 999.22 1000.09 1001.22 1002.54 1003.94 1005.35 1006.73 1008.04 1009.27 1010.43 1011.51 1012.51 1013.43 1014.26 1014.98 1015.59 1016.07 1016.44 1016.72 1016.93 1017.11 1017.28 1017.46 1017.66 1017.90 1018.15 1018.40
1005.51 1004.79 1004.30 1004.02 1003.88 1003.80 1003.65 1003.35 1002.83 1002.09 1001.18 1000.21 999.30 998.60 998.21 998.21 998.60 999.38 1000.46 1001.76 1003.17 1004.61 1006.03 1007.38 1008.64 1009.83 1010.93 1011.96 1012.92 1013.80 1014.59 1015.28 1015.86 1016.34 1016.71 1017.01 1017.25 1017.47 1017.67 1017.88 1018.09 1018.30 1018.52
1005.64 1004.87 1004.31 1003.99 1003.85 1003.80 1003.71 1003.47 1003.00 1002.29 1001.37 1000.34 999.34 998.51 997.97 997.81 998.06 998.72 999.71 1000.95 1002.34 1003.77 1005.19 1006.55 1007.83 1009.03 1010.15 1011.22 1012.23 1013.18 1014.05 1014.84 1015.53 1016.11 1016.60 1017.00 1017.33 1017.61 1017.86 1018.09 1018.30 1018.50 1018.69
1005.74 1004.93 1004.34 1003.99 1003.84 1003.81 1003.76 1003.58 1003.16 1002.49 1001.57 1000.51 999.43 998.48 997.81 997.50 997.61 998.12 999.01 1000.16 1001.48 1002.87 1004.27 1005.62 1006.90 1008.11 1009.27 1010.38 1011.44 1012.46 1013.42 1014.31 1015.11 1015.81 1016.40 1016.90 1017.32 1017.68 1017.99 1018.27 1018.51 1018.72 1018.90
1005.80 1004.98 1004.36 1003.99 1003.84 1003.82 1003.80 1003.65 1003.28 1002.64 1001.74 1000.66 999.53 998.49 997.71 997.27 997.24 997.62 998.39 999.44 1000.67 1002.01 1003.36 1004.69 1005.97 1007.20 1008.38 1009.53 1010.66 1011.74 1012.79 1013.76 1014.65 1015.44 1016.14 1016.73 1017.24 1017.68 1018.06 1018.39 1018.68 1018.92 1019.12
1005.80 1004.99 1004.36 1003.98 1003.82 1003.79 1003.78 1003.66 1003.33 1002.72 1001.83 1000.74 999.59 998.51 997.65 997.11 996.97 997.24 997.90 998.84 999.99 1001.26 1002.57 1003.87 1005.15 1006.39 1007.60 1008.79 1009.96 1011.11 1012.21 1013.25 1014.21 1015.07 1015.83 1016.50 1017.09 1017.60 1018.05 1018.46 1018.81 1019.10 1019.33
Thickness
5741 5743 5743 5742 5742 5742 5741 5741 5740 5740 5739 5738 5737 5736 5735 5734 5733 5733 5731 5731 5730 5729 5728 5727 5726 5725 5723 5722 5721 5720 5719 5718 5717 5716 5716 5714 5713 5712 5711 5709 5708 5707 5706
5743 5742 5741 5740 5740 5739 5739 5738 5737 5737 5736 5735 5734 5733 5732 5731 5731 5730 5729 5728 5727 5726 5726 5724 5723 5722 5721 5719 5718 5717 5716 5715 5714 5713 5712 5711 5710 5709 5707 5706 5705 5704 5703
5741 5740 5738 5738 5737 5737 5736 5736 5734 5734 5733 5732 5731 5730 5729 5728 5728 5727 5726 5725 5724 5723 5723 5721 5720 5719 5718 5717 5715 5714 5713 5712 5710 5709 5708 5707 5706 5706 5704 5703 5702 5701 5699
5738 5737 5735 5734 5734 5733 5733 5732 5731 5730 5730 5729 5728 5727 5726 5725 5725 5724 5723 5722 5721 5720 5719 5718 5717 5716 5714 5713 5712 5711 5709 5708 5707 5706 5704 5703 5703 5702 5701 5700 5699 5697 5696
5732 5732 5731 5730 5730 5730 5729 5728 5728 5727 5726 5726 5725 5724 5723 5722 5722 5721 5720 5718 5717 5717 5716 5715 5713 5712 5711 5710 5709 5707 5706 5704 5703 5702 5701 5700 5699 5698 5697 5696 5695 5693 5692
5726 5727 5727 5727 5726 5726 5725 5725 5724 5724 5723 5722 5721 5720 5720 5719 5718 5717 5716 5715 5714 5713 5712 5711 5710 5709 5707 5706 5705 5703 5702 5700 5699 5698 5697 5696 5695 5694 5693 5692 5690 5689 5688
5721 5721 5722 5722 5721 5721 5721 5721 5720 5720 5719 5718 5717 5717 5716 5715 5714 5713 5712 5711 5710 5709 5708 5707 5706 5705 5703 5702 5701 5699 5698 5696 5695 5694 5693 5692 5691 5690 5689 5687 5686 5684 5683
5716 5716 5716 5716 5717 5717 5717 5716 5716 5715 5715 5714 5713 5713 5712 5711 5710 5709 5708 5707 5706 5705 5704 5703 5702 5700 5699 5698 5696 5695 5693 5692 5691 5690 5688 5687 5686 5685 5684 5683 5681 5679 5678
5709 5710 5710 5710 5711 5711 5712 5712 5711 5711 5710 5710 5709 5708 5707 5707 5706 5705 5704 5703 5702 5701 5700 5699 5698 5696 5695 5693 5692 5690 5689 5688 5687 5685 5684 5683 5682 5681 5679 5678 5676 5675 5673
5701 5702 5703 5704 5705 5705 5705 5706 5706 5705 5705 5705 5704 5703 5702 5702 5701 5700 5700 5699 5698 5697 5696 5694 5693 5692 5690 5689 5687 5686 5684 5683 5682 5681 5679 5678 5677 5676 5674 5673 5671 5670 5668
5692 5694 5695 5696 5697 5698 5698 5699 5699 5699 5699 5699 5698 5698 5697 5697 5696 5695 5695 5694 5693 5692 5691 5689 5688 5687 5685 5684 5682 5681 5679 5678 5677 5675 5674 5673 5672 5671 5669 5668 5666 5665 5663
5684 5687 5689 5689 5690 5691 5692 5692 5693 5693 5693 5693 5692 5692 5692 5691 5691 5690 5689 5689 5688 5687 5685 5684 5683 5681 5679 5678 5677 5675 5674 5672 5670 5669 5668 5667 5666 5665 5664 5662 5661 5659 5658
5677 5679 5682 5683 5683 5684 5685 5685 5686 5686 5686 5686 5686 5686 5686 5686 5685 5684 5683 5683 5682 5681 5680 5678 5676 5675 5673 5672 5671 5669 5667 5665 5664 5663 5662 5661 5660 5659 5658 5656 5655 5654 5652
5669 5671 5673 5676 5676 5677 5678 5679 5679 5679 5679 5679 5680 5681 5681 5680 5679 5678 5678 5677 5676 5675 5674 5672 5670 5669 5667 5666 5664 5663 5661 5659 5657 5656 5655 5654 5653 5652 5651 5650 5649 5647 5646
5661 5663 5665 5668 5669 5669 5670 5671 5672 5672 5673 5673 5673 5674 5675 5674 5674 5672 5671 5671 5669 5668 5667 5666 5664 5662 5660 5659 5657 5656 5654 5652 5650 5648 5647 5647 5646 5645 5644 5643 5642 5640 5639
5653 5655 5658 5661 5662 5662 5664 5664 5664 5665 5666 5666 5667 5667 5667 5668 5667 5667 5665 5664 5663 5662 5660 5659 5657 5656 5653 5652 5650 5648 5646 5645 5643 5641 5640 5639 5638 5636 5636 5635 5634 5633 5631
5645 5648 5651 5654 5655 5655 5656 5656 5657 5658 5658 5659 5660 5660 5660 5661 5661 5660 5659 5658 5657 5655 5653 5652 5650 5648 5646 5644 5642 5640 5639 5637 5635 5633 5632 5630 5629 5628 5627 5626 5626 5624 5624
5637 5640 5643 5646 5647 5648 5649 5649 5650 5651 5651 5651 5653 5653 5654 5654 5654 5653 5651 5651 5649 5648 5646 5644 5642 5640 5637 5635 5633 5631 5630 5628 5626 5625 5624 5622 5621 5619 5618 5617 5616 5615 5615
5629 5632 5635 5638 5640 5641 5641 5641 5642 5643 5643 5644 5646 5646 5647 5647 5646 5645 5644 5643 5642 5640 5639 5637 5634 5632 5628 5626 5624 5622 5620 5619 5617 5616 5615 5613 5612 5610 5609 5607 5607 5606 5605
5621 5624 5626 5630 5632 5633 5633 5633 5633 5634 5635 5636 5637 5639 5639 5639 5638 5637 5636 5635 5634 5632 5630 5628 5625 5622 5620 5617 5614 5612 5610 5609 5608 5607 5605 5603 5602 5601 5599 5598 5597 5596 5595
5612 5615 5618 5621 5623 5624 5625 5626 5626 5626 5628 5628 5630 5631 5631 5631 5631 5630 5628 5627 5626 5624 5622 5620 5617 5614 5610 5607 5604 5601 5600 5599 5598 5597 5595 5594 5592 5591 5589 5588 5587 5586 5585
5604 5607 5610 5612 5615 5617 5618 5619 5619 5619 5619 5620 5620 5621 5622 5623 5623 5622 5621 5619 5617 5615 5613 5611 5608 5605 5601 5598 5595 5592 5590 5590 5591 5590 5587 5585 5583 5581 5580 5578 5577 5576 5575
5595 5599 5602 5604 5607 5609 5609 5609 5609 5609 5609 5609 5611 5613 5614 5614 5614 5613 5613 5611 5608 5607 5604 5602 5600 5598 5593 5589 5586 5584 5582 5582 5580 5581 5579 5576 5574 5573 5571 5569 5568 5566 5565
5587 5591 5592 5594 5597 5599 5600 5600 5600 5601 5601 5602 5602 5603 5604 5604 5605 5605 5604 5601 5600 5598 5595 5593 5591 5589 5586 5582 5578 5575 5573 5572 5570 5570 5570 5567 5566 5564 5562 5561 5559 5558 5556
5579 5582 5583 5585 5587 5589 5591 5591 5591 5591 5592 5592 5592 5593 5594 5594 5595 5595 5594 5592 5590 5589 5586 5584 5582 5579 5578 5575 5571 5567 5564 5562 5560 5559 5559 5558 5557 5556 5554 5552 5550 5549 5547
5570 5571 5573 5575 5578 5579 5581 5582 5582 5583 5583 5583 5584 5584 5585 5585 5585 5585 5583 5582 5581 5579 5576 5574 5572 5570 5568 5566 5563 5559 5557 5555 5552 5549 5548 5547 5546 5546 5545 5544 5542 5540 5538